Location: Marcé
(47.5801°N, 0.3280°W)
Time: 20:51:38
(UTC+01:00)

Vanguard 3 - Pass Details

Date: 09 December 2021
Orbit: 508 x 3260 km, 33.3° (Epoch: 17 January)

Event Time Altitude Azimuth Distance (km) Brightness Sun altitude
Rises 05:34:24 0° 255° (WSW) 6,936 - -29.8°
Reaches altitude 10° 05:39:01 10° 251° (WSW) 6,079 - -29.0°
Exits shadow 05:45:58 27° 240° (WSW) 4,887 10.6 -27.9°
Maximum altitude 05:57:36 51° 184° (S) 3,671 10.3 -25.9°
Drops below altitude 10° 06:12:57 10° 116° (ESE) 5,112 12.2 -23.3°
Sets 06:16:27 0° 111° (ESE) 5,809 12.9 -22.8°
